RH
48 45 44 47 47 44 42 40 40 39 38 36 37 38 40 40 42 45 48 48 48 46 48 50 53 58 78 100 100 96 97 96 86 79 74 76 73 85 82 100 100 100 97 44
47 50 48 41 35 31 30 28 24 31 33 30 28 27 24 20 20 25 30 37 38 39 42 47 45 54 91 100 100 100 100 100 98 92 84 87 96 92 100 100 100 97 100 60
23 30 27 25 24 25 25 22 14 12 11 14 18 18 16 14 14 17 24 26 26 32 35 41 41 43 73 90 100 100 100 99 100 100 100 100 92 82 85 100 99 100 90 99
35 24 24 24 21 21 22 19 18 19 18 18 16 13 13 14 17 18 17 20 25 27 26 29 36 42 55 89 100 97 100 93 96 100 100 99 92 86 83 84 89 100 87 100
52 40 33 30 24 19 17 19 19 19 19 17 12 10 11 12 16 21 20 20 21 22 20 19 17 20 26 40 49 67 76 80 91 81 84 90 75 74 86 84 81 83 94 81
55 40 36 28 22 19 19 20 22 21 19 14 11 12 12 11 11 11 14 16 15 14 27 32 28 29 21 22 32 100 95 62 59 34 61 54 27 46 58 73 92 100 92 82
36 26 23 23 25 24 24 27 25 21 16 15 14 13 11 9 10 9 12 14 15 52 32 33 58 79 100 53 40 66 76 84 97 83 100 72 74 77 79 88 100 100 97 97
22 21 25 26 30 31 32 34 30 20 18 16 14 11 10 8 12 16 16 18 17 16 20 43 45 52 52 62 98 100 100 100 100 100 100 75 56 71 75 99 100 100 100 100
27 29 30 30 33 39 38 32 26 23 20 14 11 11 16 22 34 38 40 41 38 37 40 44 76 95 96 73 100 100 100 100 100 100 100 76 67 100 100 96 97 96 95 90
35 37 39 42 43 43 30 27 26 24 20 10 14 18 36 58 61 62 66 65 61 55 54 53 53 55 67 75 100 100 100 100 100 100 100 80 72 100 100 100 100 86 69 69
45 39 37 36 41 37 34 31 22 18 10 8 37 75 74 80 74 70 65 62 56 58 57 65 80 88 96 85 83 100 100 100 99 100 100 85 96 97 82 84 99 100 99 96
45 43 46 48 45 36 30 20 14 11 14 36 74 72 74 70 71 66 61 53 47 60 76 85 98 89 88 83 73 74 95 98 100 100 100 100 100 89 74 76 100 98 89 99
53 59 62 45 35 22 14 6 23 48 69 75 67 65 64 63 51 42 38 50 62 77 100 100 100 100 94 82 76 88 90 84 80 82 77 92 95 88 83 46 66 100 100 100
38 52 60 44 16 8 12 38 95 99 78 57 40 39 37 36 64 92 100 100 99 97 99 100 99 94 81 70 62 63 66 88 98 67 70 72 80 96 94 76 71 100 100 100
45 39 27 12 7 23 59 98 99 78 59 32 26 19 39 92 88 100 100 92 71 75 70 77 79 70 67 68 91 98 100 100 100 90 81 91 89 100 99 81 98 100 100 100
20 13 6 15 47 87 99 83 81 51 35 20 17 49 63 78 94 98 92 84 82 87 82 66 54 54 73 74 66 75 92 96 91 100 100 100 100 100 100 100 100 100 100 100
10 8 31 70 97 90 68 58 47 34 44 41 47 59 62 71 72 68 62 63 66 68 71 84 100 100 100 91 99 100 100 100 100 100 100 98 98 100 100 100 100 100 96 62
16 50 80 96 76 61 54 38 27 47 60 67 60 55 71 80 88 85 94 100 100 100 100 100 100 99 99 100 100 100 100 100 100 100 100 100 100 100 100 100 95 61 32 25
67 91 92 75 60 47 41 28 34 54 66 70 91 86 67 85 100 100 98 100 100 89 98 97 96 100 93 89 98 100 100 100 100 100 100 100 100 99 84 56 37 31 27 23
94 98 85 66 55 44 45 38 47 59 97 100 88 87 99 100 100 100 98 94 90 95 95 100 100 94 100 100 100 99 93 94 100 100 99 94 82 63 49 45 41 35 34 33
99 98 82 67 52 54 42 50 53 78 92 100 100 98 98 100 100 97 94 94 98 100 100 100 98 100 100 99 100 100 100 98 98 92 78 63 57 56 55 52 48 46 41 30
98 86 76 72 63 43 58 60 56 71 100 84 92 100 100 100 98 96 93 100 99 100 100 100 100 100 100 100 100 100 99 92 78 66 59 57 56 54 52 52 54 52 42 29
96 87 84 79 57 47 68 58 64 83 87 89 91 100 100 100 98 91 100 100 100 100 100 95 100 100 100 99 100 99 87 78 74 69 66 61 59 57 57 57 58 59 48 32
100 94 89 70 40 51 58 76 94 85 85 82 95 96 98 97 100 98 100 100 100 99 97 99 100 100 98 98 98 90 77 64 56 58 65 64 59 60 61 61 63 64 55 35
99 95 100 38 53 66 69 89 94 78 74 86 78 90 100 100 100 100 100 100 100 100 98 100 100 100 97 97 91 68 40 34 46 56 67 74 74 74 72 71 70 70 63 41
91 100 72 39 66 69 79 94 91 68 74 80 81 99 96 98 100 100 100 100 100 100 100 100 100 98 98 96 77 53 41 42 51 64 77 78 78 82 84 79 77 73 72 49
100 73 33 50 60 57 68 70 68 58 66 75 98 91 95 100 95 100 100 100 100 100 100 100 100 100 99 96 87 71 57 58 72 81 79 88 84 84 86 84 85 79 77 60
Wind_Speed
58 59 60 58 58 57 57 57 57 59 59 61 62 61 61 61 58 58 57 55 54 55 53 53 51 51 48 52 54 53 52 54 58 58 59 61 57 55 54 50 45 49 56 55
56 55 55 55 57 57 57 57 58 59 62 62 63 64 64 64 64 61 59 58 57 57 57 54 55 50 47 53 55 56 52 43 50 58 64 65 62 61 55 49 52 61 59 57
53 53 55 57 56 58 59 62 62 64 68 71 71 69 69 70 69 67 65 63 61 60 59 55 57 55 53 56 60 66 63 63 66 71 73 71 71 68 63 62 65 66 65 61
56 58 60 61 63 61 61 64 66 68 69 70 69 69 68 70 68 68 67 68 63 61 62 59 58 56 58 60 67 68 69 70 72 73 73 70 69 67 66 71 70 73 69 68
62 62 65 67 65 65 67 68 71 74 76 73 71 72 74 73 67 69 69 67 63 64 64 60 60 59 59 61 65 66 67 70 70 72 68 69 70 66 62 64 65 66 61 66
64 66 67 66 67 67 69 72 75 77 73 69 71 71 75 75 70 67 64 63 64 62 56 52 55 51 53 55 58 56 64 63 63 68 61 65 67 58 57 56 53 50 53 52
65 67 68 70 72 73 74 76 77 72 66 70 71 73 73 69 64 63 60 58 56 54 54 52 49 44 49 49 50 52 54 52 50 53 50 55 51 49 46 45 41 42 44 40
68 69 72 74 76 79 78 80 77 73 70 70 73 72 71 62 52 49 52 45 47 47 46 42 47 43 45 37 36 38 40 35 38 40 40 46 41 42 37 33 36 39 38 39
70 73 76 76 81 82 81 77 76 77 75 74 71 66 55 47 44 40 38 38 38 39 41 42 46 46 45 43 39 38 35 36 40 41 40 43 31 30 35 38 38 39 37 38
75 78 79 81 83 78 73 76 80 80 79 69 58 49 43 39 40 40 37 39 39 41 43 46 46 46 44 43 35 38 39 43 40 37 39 36 31 35 35 37 41 40 39 37
80 80 80 77 75 78 79 80 79 77 73 61 42 37 37 39 40 43 43 45 45 47 47 47 43 43 39 43 41 39 41 42 35 31 36 36 32 35 39 44 41 37 35 37
81 77 75 77 79 79 80 75 62 56 54 45 37 35 39 41 42 49 45 44 44 44 44 42 43 44 44 42 43 37 36 33 36 31 32 35 37 39 41 44 42 39 40 41
75 77 77 78 80 76 67 56 43 42 43 41 40 39 39 41 38 49 48 41 39 34 29 31 34 35 32 34 31 29 29 33 36 36 36 42 39 40 43 45 46 45 42 43
76 77 77 77 67 57 45 38 36 40 45 45 34 40 46 43 30 23 20 23 21 25 28 29 28 29 29 28 29 31 31 33 32 35 38 42 42 45 41 41 44 44 41 34
73 72 69 59 45 36 34 33 34 39 42 45 47 40 23 16 21 20 24 25 25 26 28 27 27 27 32 33 33 29 31 35 37 39 40 42 42 43 37 36 41 34 26 22
65 60 48 35 31 31 31 29 35 38 46 36 9 5 8 12 16 20 22 25 26 26 27 28 28 26 30 34 35 33 36 39 40 41 44 44 35 30 30 35 26 17 16 16
52 36 28 27 28 29 30 29 36 36 17 13 5 6 10 11 15 17 20 22 24 26 27 26 28 30 34 38 37 39 41 41 38 32 19 16 20 26 24 12 11 11 14 18
30 26 25 24 25 27 26 35 27 13 14 17 17 18 14 11 11 13 18 19 21 23 24 26 28 31 34 32 32 29 23 17 12 9 13 16 10 4 4 6 10 14 17 20
24 22 21 21 24 23 31 26 11 9 14 15 12 12 12 12 12 13 15 18 23 25 26 26 28 29 28 25 20 11 7 6 6 7 6 3 3 5 9 11 13 16 19 21
21 20 20 20 23 23 31 12 9 11 10 10 12 15 13 14 17 19 24 25 27 22 23 25 22 16 15 12 11 12 14 12 8 8 13 12 10 10 11 13 15 18 22 24
19 18 20 22 23 28 12 9 11 6 8 9 11 11 11 16 23 25 25 28 27 25 20 13 7 6 5 10 14 16 16 16 16 13 12 12 12 13 15 17 19 21 23 26
18 18 20 23 23 17 9 8 7 9 8 10 8 10 13 19 22 24 24 26 22 17 10 4 1 3 6 13 16 17 16 15 14 14 15 16 17 18 19 20 21 23 26 29
18 19 22 19 22 12 10 8 9 10 11 10 8 10 15 20 23 24 25 22 18 12 3 2 6 8 11 13 14 14 13 13 13 15 18 19 20 22 24 24 25 26 29 32
19 20 20 24 12 12 10 11 11 10 10 9 10 14 19 20 23 25 22 20 13 5 3 6 6 8 11 12 11 10 10 11 13 16 18 22 24 27 28 30 31 31 32 35
19 20 21 11 15 13 12 12 12 12 11 10 13 15 16 18 22 24 20 18 9 2 2 3 6 8 9 8 7 6 8 11 13 16 19 21 25 28 32 35 37 36 36 38
19 17 16 16 13 14 10 8 12 13 10 12 14 14 17 17 22 24 20 14 6 4 4 5 8 6 5 3 2 5 9 11 14 17 20 23 26 29 33 36 40 40 39 41
18 15 19 20 16 14 9 8 10 13 11 13 15 15 17 19 21 23 18 11 9 7 6 8 10 8 6 3 4 7 10 13 17 19 21 24 28 30 33 37 41 43 43 43
Wind_Direction
301 301 300 298 299 299 300 299 302 302 301 301 302 304 306 304 304 304 303 301 300 299 296 293 290 290 286 281 283 288 275 280 284 285 286 290 291 290 292 294 292 285 284 295
299 300 301 302 301 301 300 300 301 301 304 303 302 303 304 306 307 307 305 302 299 297 293 286 287 285 279 277 276 282 274 269 270 274 284 288 289 289 287 275 275 279 278 289
302 302 305 306 307 307 306 305 306 307 306 307 307 307 307 309 309 305 302 299 297 291 287 283 281 280 270 269 268 271 266 265 269 275 278 281 281 284 283 278 277 284 280 283
306 308 308 307 307 307 308 310 310 310 311 312 311 310 309 308 305 300 297 294 291 285 285 281 277 274 269 263 264 269 270 270 271 271 274 276 277 278 278 277 281 283 281 285
308 309 311 310 310 310 310 311 310 308 309 308 308 308 309 308 305 300 297 291 288 287 285 281 278 275 273 271 271 272 272 273 275 275 277 278 277 277 279 278 281 283 286 282
307 306 305 304 302 303 304 306 309 307 306 301 302 304 304 305 300 296 291 288 286 285 284 283 281 279 274 273 274 273 277 282 283 280 285 283 280 285 284 285 290 295 292 292
303 304 307 307 304 304 304 307 307 306 303 302 301 304 302 299 294 292 287 283 282 279 281 281 276 270 274 279 273 273 281 286 288 288 289 286 292 297 299 301 294 297 293 287
304 303 305 308 308 308 308 308 306 302 302 302 303 300 300 298 295 290 290 286 285 282 280 276 279 274 275 276 271 277 280 281 288 297 296 293 291 294 299 301 293 301 301 294
306 306 307 305 306 307 308 305 303 303 303 305 304 303 301 300 293 287 287 287 285 285 283 281 271 275 280 285 277 278 273 281 284 292 296 296 301 309 301 296 297 296 304 307
304 304 305 305 307 305 303 305 304 304 303 305 303 304 299 295 292 292 289 285 281 282 281 280 279 276 277 275 268 273 276 282 285 290 290 297 293 298 306 311 307 298 304 305
304 305 305 306 304 303 303 304 305 305 302 304 305 298 298 290 288 290 291 287 287 285 283 282 282 275 273 274 273 273 277 286 287 292 298 302 297 300 303 302 306 307 302 302
304 304 305 305 304 305 304 305 301 301 302 305 300 300 295 291 288 290 289 289 287 284 284 286 285 284 283 286 283 282 284 291 286 289 296 302 297 296 298 294 301 299 296 301
304 302 303 303 306 306 303 300 300 299 297 296 304 299 292 290 291 291 289 286 285 290 292 294 293 291 295 295 295 288 287 288 288 284 286 294 297 298 296 289 295 305 302 303
303 304 303 304 302 300 298 302 299 295 298 303 304 299 292 292 287 291 308 298 301 302 297 287 289 295 300 296 289 286 292 291 289 282 285 286 287 296 292 286 293 305 304 303
305 303 301 300 298 297 298 298 296 300 301 304 303 299 296 269 309 300 296 293 291 290 287 289 289 289 288 289 290 297 291 289 288 284 282 288 288 290 288 291 298 303 303 307
299 299 300 296 297 295 296 301 299 300 304 308 328 12 344 313 301 302 296 288 293 295 295 296 296 295 292 297 299 300 294 290 289 289 289 288 283 287 291 296 298 306 303 301
297 298 295 295 293 298 303 303 303 304 304 331 8 331 333 299 297 295 300 299 299 299 300 306 307 307 301 299 302 296 294 294 294 292 288 288 288 292 293 301 301 296 325 325
294 292 292 293 300 303 303 310 303 287 313 317 329 331 332 321 317 309 313 312 311 311 310 310 309 310 312 309 301 299 300 303 306 305 300 297 301 330 319 308 335 332 324 323
285 287 292 299 302 301 314 307 279 288 311 330 345 330 342 342 337 329 325 324 321 314 307 308 312 315 318 320 314 298 309 331 34 55 56 56 62 32 7 347 334 327 325 328
282 288 294 300 302 303 312 272 258 293 312 316 303 324 332 334 334 331 324 326 328 324 314 313 321 328 342 12 58 81 85 79 90 88 52 38 20 3 349 338 333 332 333 329
281 288 293 300 299 307 279 245 270 261 283 301 301 308 320 331 334 330 326 326 326 325 328 332 333 5 37 70 84 91 88 76 60 46 34 20 8 357 349 342 337 333 333 335
283 288 295 299 300 291 237 258 254 250 305 315 297 311 333 334 333 334 331 330 332 339 349 351 79 123 130 106 88 77 69 61 52 42 32 21 12 4 355 347 343 340 340 341
281 288 300 301 302 222 231 258 241 270 307 309 313 327 334 330 333 338 339 342 343 346 359 128 148 164 125 97 86 76 70 60 44 33 24 16 10 5 1 355 348 345 344 344
277 288 296 309 260 217 238 255 254 270 302 301 316 325 330 332 334 340 342 349 351 5 100 133 168 160 117 102 90 78 59 41 26 19 12 10 9 5 1 359 354 349 346 346
276 289 302 281 206 231 240 262 262 270 300 308 316 321 323 327 333 343 345 349 345 353 132 178 190 154 124 109 89 59 28 15 6 2 358 355 354 354 357 357 355 350 347 347
281 296 293 209 224 233 240 258 260 270 288 307 310 317 318 323 334 340 341 340 320 277 258 225 209 181 152 135 61 10 2 353 350 349 349 347 344 345 349 350 351 349 347 346
290 273 207 213 234 236 247 278 276 261 275 295 306 312 314 318 330 338 332 325 305 285 265 252 236 216 213 239 298 329 333 335 338 337 339 343 342 343 343 344 346 347 345 345